Zurück zum Katalog

STARLINK-5815

AktivKommunikationVLEO
NORAD 55789·PAYLOAD·🇺🇸 United States

Gestartet Mar 3, 2023 von Vandenberg Space Force Base

Loading…

Nächste Überflüge (nächste 24 Stunden)

TLE

AktuellSource: CelesTrak SupGP

Epoche: Sep 14, 2026, 21:13 UTC

1 55789C 23028BA  26257.88451389  .00022008  00000+0  18442-2 0  2576
2 55789  70.0003  87.3811 0002286 269.2046 208.4945 14.98325204    12

Verfolge STARLINK-5815 in Echtzeit mit AllMySat

Download on the App Store